Regional Weather Roundup
Issued by NWS Albany, NY

Home | Current Version | Previous Version | Graphics & Text | Print | Product List | Glossary Off
Versions: 1 2 3 4 5 6 7 8 9 10 11 12 13 14 15 16 17 18 19 20 21 22 23 24 25 26 27 28 29 30 31 32 33 34 35 36 37 38 39 40 41 42 43 44 45 46 47 48 49 50

000
ASUS41 KALY 270010
RWRALY

NEW YORK STATE HOURLY WEATHER ROUNDUP
NATIONAL WEATHER SERVICE ALBANY NY
800 PM EDT THU MAR 26 2015

NOTE: "FAIR" INDICATES FEW OR NO CLOUDS BELOW 12,000 FEET WITH NO
SIGNIFICANT WEATHER AND/OR NO OBSTRUCTIONS TO VISIBILITY.

NYZ032-033-038>043-046>054-057>066-NYZ062>081-270100-
EAST


CITY           SKY/WX    TMP DP  RH WIND       PRES   REMARKS
ALBANY         LGT RAIN  40  37  89 NW6       29.74R FOG
GLENS FALLS    LGT RAIN  38  36  92 N3        29.73R FOG
POUGHKEEPSIE   LGT RAIN  43  40  89 N12       29.68R FOG
NEWBURGH       LGT RAIN  46  46 100 NE12G18   29.64S FOG
MONTGOMERY     LGT RAIN  43  42  97 NE17      29.66R FOG
WHITE PLAINS   FOG       54  53  97 VRB5      29.61R VSB 1/2
ISLIP          FOG       54  52  93 S16G28    29.62F VSB 1
NEW YORK CITY  CLOUDY    57  53  86 S12       29.60R
CENTRAL PARK   CLOUDY    61  57  87 VRB3      29.62R
$$

NYZ005>009-017-018-044>046-055-056-270100-
CENTRAL


CITY           SKY/WX    TMP DP  RH WIND       PRES   REMARKS
FULTON         LGT SNOW  33  31  92 W3        29.79F FOG
SYRACUSE       LGT SNOW  33  33 100 NW5       29.79S FOG     WCI  29
ROME           LGT RAIN  33  33 100 W6        29.80R WCI  28
ELMIRA         CLOUDY    34  34 100 E6        29.75F FOG     WCI  29
BINGHAMTON     FOG       34  34 100 NW5       29.72S VSB 1   WCI  30
MONTICELLO     CLOUDY    41  41 100 W9        29.68R
$$

NYZ026>034-041>043-270100-
NORTH


CITY           SKY/WX    TMP DP  RH WIND       PRES   REMARKS
WATERTOWN      LGT SNOW  34  32  92 S3        29.78S FOG
FORT DRUM      NOT AVBL
MASSENA        CLOUDY    35  35 100 SW7       29.78R WCI  29
SARANAC LAKE   LGT SNOW  33  32  96 CALM      29.70R FOG
PLATTSBURGH    LGT RAIN  35  34  96 N7        29.75R FOG     WCI  29
$$

NYZ001>004-010>016-019>021-270100-
WEST


CITY           SKY/WX    TMP DP  RH WIND       PRES   REMARKS
NIAGARA FALLS  CLOUDY    35  32  88 SW9       29.81R WCI  28
BUFFALO        CLOUDY    33  32  96 SW10      29.81R FOG     WCI  25
DUNKIRK        CLOUDY    33  32  96 SW8       29.84R FOG     WCI  26
JAMESTOWN      CLOUDY    32  28  86 SW9       29.80R WCI  24
WELLSVILLE     MIX PCPN  34  32  92 NW7       29.74F WCI  28
ROCHESTER      CLOUDY    36  34  92 W5        29.80R WCI  32
PENN YAN       CLOUDY    35  34  96 CALM      29.77F FOG
$$

             KEY
       WCI = WIND CHILL INDEX
       VSB = VISIBILITY
       HX  = HEAT INDEX
$$


USA.gov is the U.S. government's official web portal to all federal, state and local government web resources and services.